Flag for Cameroon Weather past 2 weeks in Bamenda, Cameroon

Now
75 °F

Overcast.


Feels Like: 74 °F
Forecast: 64 / 72 °F
Wind: No wind

Location: Douala Obs.

Current Time: Sep 1, 2015 at 5:01:50 AM

Latest Report: Sep 1, 2015 at 4:00 AM


Visibility: 5 mi

Pressure: 29.92 "Hg (25.94 "Hg at 1240m altitude)

Humidity: 94%

Dew point: 73 °F

Location of BamendaLocation

Historic Weather in Bamenda — Graph

°F

Bamenda temperature yesterday

Maximum temperature yesterday: 81 °F (at 11:00 AM)
Minimum temperature yesterday: 75 °F (at 9:00 AM)
Average temperature yesterday: 77 °F

Past Weeks' High & Low Weather Summary

 TemperatureHumidityPressure
High84 °F (Aug 19, 2:00 PM)100% (Aug 17, 3:00 AM)30.04 "Hg (Aug 17, 3:00 AM)
Low75 °F (Aug 17, 3:00 AM)66% (Aug 21, 2:00 PM)29.80 "Hg (Aug 22, 5:00 PM)
Average78 °F92%29.91 "Hg
* Reported Aug 17 3:00 AM — Sep 1 3:00 AM, Bamenda, Weather by CustomWeather, © 2015

Note: Actual official high and low records may vary slightly from our data, if they occured in-between our weather recording intervals... More about our weather records

Advertising

Bamenda weather history for previous 24 hours

 ConditionsComfort  
Time TempWeatherWind HumidityBarometerVisibility
3:00 AM
Tue, Sep 1
75 °FLight rain. Mostly cloudy.2 mph94%29.95 "Hg4 mi
2:00 AM75 °FLight rain. Mostly cloudy.5 mph100%29.95 "Hg4 mi
12:00 AM77 °FPassing clouds.No wind94%29.98 "HgN/A
11:00 PM
Mon, Aug 31
75 °FPassing clouds.No wind100%29.98 "HgN/A
10:00 PM75 °FPassing clouds.2 mph100%29.98 "HgN/A
9:00 PM75 °FLight rain. Passing clouds.2 mph100%29.95 "Hg4 mi
8:00 PM75 °FPassing clouds.2 mph100%29.92 "Hg6 mi
7:00 PM75 °FPartly cloudy.6 mph100%29.92 "Hg5 mi
6:00 PM77 °FDrizzle. Broken clouds.8 mph94%29.89 "Hg2 mi
5:00 PM77 °FDrizzle. Broken clouds.7 mph94%29.89 "Hg1 mi
4:00 PM79 °FDrizzle. Partly sunny.10 mph89%29.89 "Hg5 mi
3:00 PM81 °FPartly sunny.12 mph84%29.92 "HgN/A
2:00 PM79 °FPartly sunny.9 mph89%29.92 "HgN/A
1:00 PM81 °FDrizzle. More clouds than sun.12 mph84%29.95 "Hg4 mi
12:00 PM79 °FDrizzle. More clouds than sun.12 mph94%29.98 "Hg4 mi
11:00 AM81 °FDrizzle. More clouds than sun.9 mph84%29.98 "Hg4 mi
10:00 AM77 °FDrizzle. More clouds than sun.5 mph100%29.98 "Hg2 mi
9:00 AM75 °FDrizzle. More clouds than sun.6 mph94%29.98 "Hg1 mi
8:00 AM77 °FDrizzle. More clouds than sun.12 mph94%29.95 "Hg1 mi
7:00 AM77 °FDrizzle. More clouds than sun.No wind94%29.95 "Hg1 mi
6:00 AM77 °FPartly cloudy.2 mph94%29.92 "Hg5 mi
5:00 AM77 °FPassing clouds.1 mph94%29.92 "HgN/A
Weather by CustomWeather, © 2015

See weather overviewHow to use our weather pages